Regional Weather Roundup
Issued by NWS Kansas City/Pleasant Hill, MO

Home | Current Version | Previous Version | Text Only | Print | Product List | Glossary On
Versions: 1 2 3 4 5 6 7 8 9 10 11 12 13 14 15 16 17 18 19 20 21 22 23 24 25 26 27 28 29 30 31 32 33 34 35 36 37 38 39 40 41 42 43 44 45 46 47 48 49 50
000
ASUS43 KEAX 311910
RWREAX

WEATHER ROUNDUP FOR EASTERN KANSAS AND NORTHWEST MISSOURI
NATIONAL WEATHER SERVICE KANSAS CITY/PLEASANT HILL MO
200 PM CDT FRI OCT 31 2014

KSZ040-057-103>105-MOZ028-029-037-043-312000-
...KANSAS CITY METROPOLITAN AREA...

CITY           SKY/WX    TMP DP  RH WIND       PRES   REMARKS
K.C. INTL      SUNNY     43  20  39 N13G21    30.47F
K.C. DOWNTOWN  SUNNY     45  19  35 NE9       30.47F
LEES SUMMIT    SUNNY     44  18  35 N13G21    30.46F
OLATHE - IXD   SUNNY     43  20  39 N9        30.47F
OLATHE - OJC   SUNNY     44  16  32 N16G22    30.45F
LAWRENCE       SUNNY     45  18  34 N8G20     30.49F

$$

MOZ001>008-011>017-020>025-030>033-038>040-044>046-053-054-312000-
...NORTHERN AND CENTRAL MISSOURI...

CITY           SKY/WX    TMP DP  RH WIND       PRES   REMARKS
ST. JOSEPH     SUNNY     44  18  35 N15G22    30.50F
MOSBY          CLEAR     43  16  33 N16G22    30.47F
WHITEMAN AFB   SUNNY     44  19  36 N17       30.42F
CLINTON        SUNNY     46  19  34 N16       30.42F
SEDALIA        LGT RAIN  46  19  34 N20       30.42F
WARSAW         NOT AVBL
MARSHALL       SUNNY     46  21  36 N15G21    30.44S
CHILLICOTHE      N/A     45  16  31 N15G22    30.46F
MOBERLY        SUNNY     45  16  31 NW16G23   30.40F
KIRKSVILLE     SUNNY     43  20  39 N16G22    30.42F

$$

MOZ041-047>049-056>058-063>065-088>090-097-312000-
...EASTERN AND SOUTHERN MISSOURI...

CITY           SKY/WX    TMP DP  RH WIND       PRES   REMARKS
ST. LOUIS INTL MOSUNNY   47  25  42 NW17G29   30.29F
SPIRIT OF STL  SUNNY     45  24  43 N20G29    30.30F
COLUMBIA       SUNNY     46  21  37 N18G28    30.37F
JEFFERSON CITY SUNNY     46  21  37 N13G24    30.38F
MEXICO         SUNNY     46  27  46 NW16G22   30.36F
HANNIBAL       SUNNY     46  16  29 NW17G25   30.36S
ROLLA          SUNNY     44  24  45 NW17G30   30.31F
LEBANON        SUNNY     46  16  29 N15G28    30.33F
OSAGE BEACH    SUNNY     45  19  36 N13G22    30.37F
SPRINGFIELD    SUNNY     47  21  35 N21G32    30.35F
BRANSON        MOSUNNY   50  25  37 N20G31    30.32S
NEVADA         SUNNY     46  21  36 N15G22    30.43F
JOPLIN         SUNNY     47  30  51 N13G24    30.40F
WEST PLAINS    SUNNY     49  22  34 N21G28    30.27S

$$

IAZ060-094-KSZ022-034>040-054-083-096-NEZ052-066-093-312000-
...KANSAS...SOUTHEAST NEBRASKA AND IOWA...

CITY           SKY/WX    TMP DP  RH WIND       PRES   REMARKS
TOPEKA         SUNNY     46  20  35 N13       30.50F
MANHATTAN      SUNNY     45  18  34 NE13      30.51F
EMPORIA        SUNNY     45  17  32 N13       30.47F
CHANUTE        SUNNY     47  21  35 N16G24    30.44F
WICHITA        SUNNY     48  18  30 NE10G21   30.47F
OMAHA          MOSUNNY   41  18  39 NW7       30.54F
LINCOLN        SUNNY     42  18  37 N8        30.55F
FALLS CITY     SUNNY     45  17  32 N14       30.50F
LAMONI         SUNNY     41  20  43 N14G24    30.46F WCI  33
DES MOINES     SUNNY     42  19  39 N15       30.48F WCI  34

$$




USA.gov is the U.S. government's official web portal to all federal, state and local government web resources and services.